Voltar ao catálogo

SL-12 R/B(2)

AtivoHEO
NORAD 24919·ROCKET BODY·🇷🇺 Russia

Lançado Aug 28, 1997 de Baikonur Cosmodrome

Loading…

Próximas Passagens (próximas 24 horas)

TLE

AtualizadoSource: Space-Track

Época: Sep 14, 2026, 18:59 UTC

1 24919U 97046D   26257.79130767 -.00000119  00000-0  00000-0 0  9995
2 24919  13.2321 109.1843 4785298  25.7271 120.7864  1.79817625190758

Acompanhe SL-12 R/B(2) em tempo real com AllMySat

Download on the App Store